GFSNW_925_temp_159.txt.gz
Temp
6 7 7 6 6 7 6 9 9 8 8 9 11 12 15 12 15 15 15 16 17 17 17 17 17 17 18 19 19 18 20 18 17 19 21 21 21 20 20 19 17 18 17 16
6 6 6 6 6 6 6 9 8 6 8 9 11 14 14 13 14 15 15 15 16 17 16 15 16 17 19 18 18 17 18 17 15 17 19 20 19 20 20 19 19 17 15 15
6 6 6 6 6 6 8 9 6 7 8 12 14 13 13 12 13 14 15 15 15 15 15 16 15 16 17 17 17 13 14 15 15 15 16 18 18 18 19 18 15 16 16 14
6 6 6 6 6 6 9 9 7 9 7 8 12 14 14 13 12 13 14 14 14 14 14 15 15 16 16 17 16 15 15 13 15 16 17 18 18 18 19 18 18 17 17 17
5 5 6 6 6 6 8 6 8 11 12 11 11 12 13 13 14 13 13 13 14 15 14 15 15 16 15 14 15 15 15 14 15 15 17 17 17 18 18 18 18 18 18 18
5 5 6 6 6 6 9 10 11 11 10 10 10 12 12 12 13 13 14 14 13 13 14 15 13 13 13 13 13 14 15 14 13 13 16 16 14 15 17 18 18 18 16 18
5 5 5 6 6 6 9 10 11 12 10 10 10 12 12 12 12 12 13 13 13 14 14 12 13 13 13 13 13 14 13 13 13 13 14 12 16 18 18 15 17 15 16 17
5 5 5 6 5 6 8 8 11 12 11 12 12 11 12 12 12 11 13 14 14 14 9 8 10 12 12 12 13 13 13 13 12 12 14 16 17 19 18 16 16 18 17 18
5 5 5 6 5 6 7 8 9 10 11 12 13 12 12 11 10 11 11 13 14 13 7 7 9 11 14 14 15 15 14 14 14 13 13 13 17 18 17 17 15 17 18 18
4 5 6 5 5 5 7 6 6 7 9 11 12 12 12 13 12 12 12 12 12 11 7 8 11 13 15 14 13 13 13 13 12 12 12 15 18 18 16 14 14 15 16 17
5 5 5 5 5 5 6 7 5 7 6 10 10 11 11 12 11 11 10 9 7 7 8 10 12 13 14 14 15 13 13 12 12 12 12 12 18 16 15 14 14 14 14 14
5 5 5 5 5 5 5 6 6 6 8 10 8 9 10 11 12 11 11 11 8 9 9 12 14 13 14 14 14 17 14 15 14 14 15 15 16 16 15 14 14 13 12 13
4 5 5 5 5 5 5 6 5 5 7 7 8 9 8 8 9 10 8 7 9 10 11 10 12 12 15 13 14 16 16 17 15 15 16 16 17 16 14 13 13 13 13 12
5 5 5 5 5 5 5 5 5 6 5 6 9 9 9 9 9 9 9 10 10 9 10 7 10 11 14 14 15 15 15 13 14 14 16 16 15 15 14 13 12 12 12 11
5 5 5 5 5 5 5 5 5 5 7 5 6 8 9 9 9 10 10 9 9 7 7 7 8 12 12 13 13 13 16 15 13 13 14 15 15 15 14 12 12 12 11 11
5 5 5 5 5 4 4 4 4 4 4 4 7 10 10 10 9 8 9 10 8 7 5 6 6 8 10 9 12 15 15 17 17 15 14 14 12 14 13 12 12 12 11 11
5 5 5 4 4 4 3 4 4 4 4 4 6 9 7 6 8 8 8 8 5 5 4 5 6 7 7 7 10 14 15 16 16 14 12 11 11 11 12 12 11 10 10 9
4 4 4 4 4 3 3 3 4 3 3 4 6 9 8 5 5 5 5 5 5 4 5 6 7 8 7 8 12 13 14 13 13 12 12 11 12 11 11 10 10 9 9 8
4 4 4 3 3 3 3 3 3 3 3 5 5 8 9 4 4 5 5 5 6 7 8 9 10 9 9 11 12 12 12 12 12 11 11 10 10 10 9 9 9 8 8 7
3 3 2 2 2 2 3 3 4 3 3 3 6 10 7 5 5 6 7 7 8 8 10 10 9 11 13 11 11 11 11 11 11 10 9 10 9 9 9 9 9 9 7 7
4 2 3 2 2 2 3 4 4 4 4 5 9 9 7 5 6 7 8 8 10 10 10 10 11 11 10 10 10 10 10 10 10 11 10 11 10 9 8 8 8 8 7 6
4 3 1 1 2 3 4 5 6 6 9 8 7 6 6 4 4 6 7 9 9 10 10 9 10 8 9 9 9 9 8 9 9 9 9 9 9 9 8 8 7 7 6 5
2 2 2 3 3 4 5 6 8 8 8 6 5 5 5 5 5 7 8 7 9 10 8 10 9 8 7 7 7 8 8 7 7 7 6 7 7 7 7 6 5 3 1 1
3 4 4 4 5 5 7 6 7 5 7 6 5 5 6 6 6 6 7 8 9 8 8 9 7 6 4 5 6 7 6 3 4 2 1 1 1 0 2 2 2 1 -1 -2
3 3 4 4 5 5 5 5 5 5 7 6 6 7 8 7 6 8 8 6 8 9 9 7 5 4 3 4 4 5 3 1 1 1 0 -0 -0 -0 -1 -0 -0 -0 -2 -3
4 5 4 5 4 5 4 4 4 6 7 7 8 8 7 6 8 8 8 9 9 7 5 4 4 3 2 1 1 1 1 1 1 0 0 -0 -0 0 -1 -2 -2 -1 -1 -2
5 4 3 3 4 4 4 4 5 6 7 7 9 7 7 9 9 8 7 6 5 3 3 3 2 1 1 0 0 -0 -0 0 1 0 0 -1 -1 -2 -0 -1 -2 -2 -2 -2

GFSNW_925_temp_162.txt.gz
Temp
6 6 6 7 7 7 7 9 9 8 9 9 11 11 13 15 17 16 16 16 18 18 19 19 18 18 20 20 20 18 20 18 17 19 21 22 21 20 20 18 18 18 17 16
5 6 6 6 7 7 7 9 8 8 9 9 11 13 13 16 15 16 16 16 17 18 17 17 17 18 20 20 19 17 18 17 15 17 19 20 19 20 20 20 19 17 15 16
5 5 6 6 6 6 7 8 6 8 8 12 13 13 14 14 14 15 16 16 17 16 16 17 17 17 18 18 18 13 15 15 15 14 16 17 17 18 19 19 15 15 15 15
4 6 6 6 5 6 7 9 9 10 7 9 12 14 14 14 13 14 15 15 15 15 15 16 16 17 17 17 16 16 15 14 15 15 16 17 17 17 18 17 18 16 17 18
4 5 5 5 5 5 6 7 10 11 13 11 10 12 13 14 15 14 13 14 15 15 15 15 15 17 17 16 17 16 16 13 14 14 16 16 16 17 18 18 18 18 18 18
4 4 5 5 5 4 7 10 11 13 11 11 10 10 12 13 15 15 15 15 15 15 16 15 15 14 14 14 14 14 14 14 14 13 15 15 13 15 17 18 18 18 17 18
3 4 4 4 4 4 8 11 12 12 10 11 10 12 12 13 14 14 15 15 14 16 14 14 14 14 14 14 14 14 13 13 13 12 13 11 15 18 18 16 18 16 18 17
3 4 5 5 4 4 6 11 11 11 10 11 11 12 12 14 14 13 14 14 15 15 12 11 11 12 13 13 14 14 14 12 10 10 12 14 15 18 18 14 14 13 18 18
3 3 4 5 4 4 6 9 10 11 11 12 13 12 12 12 12 13 13 14 14 14 8 8 10 11 14 15 15 16 15 13 10 12 11 12 16 16 14 17 14 17 17 17
2 3 4 5 4 4 6 7 8 9 10 14 14 13 13 13 13 12 13 13 12 13 8 8 10 11 14 13 14 14 13 12 11 11 11 14 17 18 17 13 14 16 15 16
3 3 4 4 4 4 5 7 7 9 9 11 12 13 13 13 13 12 13 11 9 8 8 8 11 12 14 15 16 14 12 12 12 12 12 11 17 17 12 14 15 14 14 15
3 3 4 4 4 4 6 6 7 7 8 10 9 10 10 11 11 11 10 10 8 9 8 10 12 12 13 14 13 16 12 14 14 14 14 12 12 12 15 15 15 14 14 13
3 4 4 4 4 5 6 6 6 7 8 9 9 9 10 10 10 10 8 11 11 9 10 9 10 11 14 12 13 14 14 15 12 12 16 17 17 15 15 15 14 14 14 12
4 4 4 4 4 6 6 6 6 7 8 7 9 10 10 10 10 10 10 10 10 10 10 9 8 10 13 12 13 13 14 12 13 13 15 16 16 16 16 14 13 14 14 12
4 4 4 5 6 5 5 5 6 6 8 6 7 9 10 10 10 10 10 10 10 9 8 7 8 11 11 12 13 12 14 14 13 12 13 14 15 15 16 14 13 13 12 11
4 4 5 5 6 5 5 4 4 5 5 6 7 10 11 11 11 10 10 10 9 9 6 6 7 9 9 9 11 14 15 14 14 14 12 13 14 14 15 14 13 13 12 12
4 5 5 5 4 4 3 4 5 5 5 5 6 9 10 10 10 10 8 9 7 8 5 5 6 7 7 7 9 12 13 15 14 14 13 13 13 13 13 13 13 12 12 11
4 4 4 4 4 3 4 4 4 4 4 5 6 9 8 7 7 7 6 6 5 4 5 5 6 8 7 8 10 13 14 13 14 14 14 13 13 12 12 13 12 11 11 10
4 4 4 3 3 3 4 4 4 3 4 4 5 7 9 5 5 4 4 5 6 5 6 7 8 8 8 9 12 12 12 12 13 13 12 12 11 11 11 11 11 10 9 9
3 3 2 2 2 3 4 3 3 3 3 3 4 9 8 5 5 5 5 5 6 7 8 9 8 10 13 12 11 12 11 11 12 11 10 11 10 10 10 10 10 10 9 8
4 3 2 2 3 3 3 4 4 4 4 4 6 8 8 5 6 6 5 7 7 9 9 9 10 11 9 10 10 10 10 11 11 12 11 11 11 10 9 9 9 9 8 6
5 3 2 2 2 4 4 5 6 5 7 7 7 8 7 5 5 5 6 7 8 8 11 10 10 8 9 8 8 9 9 9 10 9 10 9 10 10 9 9 8 8 7 6
4 3 2 4 4 5 5 6 8 8 7 5 5 5 5 5 6 5 6 6 8 11 9 9 8 7 6 6 6 7 8 7 8 7 5 4 4 5 7 4 5 4 3 3
3 3 4 4 5 6 8 6 5 6 7 7 7 5 6 5 6 5 6 7 9 8 8 9 5 5 4 4 4 6 4 1 2 1 0 -0 -0 -0 1 2 3 2 0 0
3 3 5 5 6 6 5 6 6 5 6 5 5 5 6 6 5 6 8 7 8 9 8 5 4 3 3 3 2 2 2 0 1 1 -1 -1 0 -0 -1 -1 1 1 -0 -1
4 5 4 5 5 5 4 4 4 5 4 5 6 7 6 7 8 8 8 9 9 6 4 3 3 2 2 1 1 0 -0 1 1 0 0 -1 -0 0 -1 -1 -1 -1 -1 -1
5 4 4 4 4 4 4 3 4 5 5 6 7 8 8 9 9 8 6 5 4 3 2 2 1 1 0 0 0 -0 0 0 1 0 -0 -1 -1 -1 -1 -1 -2 -1 -1 -1

GFSNW_925_temp_165.txt.gz
Temp
5 6 6 6 6 6 6 7 6 9 8 6 6 7 11 13 16 16 15 15 16 16 18 17 18 17 18 19 18 17 17 16 14 16 18 18 17 17 17 11 14 11 11 12
5 5 6 6 6 6 5 6 7 8 9 6 7 9 11 13 14 15 15 15 16 16 15 15 16 17 18 17 18 16 16 13 10 13 15 17 16 17 17 15 14 14 9 12
4 4 5 5 6 6 5 6 6 6 7 7 9 10 10 11 14 14 14 15 15 14 15 15 15 16 18 17 14 14 15 14 12 9 12 14 13 15 16 15 10 11 13 10
4 4 4 5 6 5 4 5 5 7 6 7 7 9 12 12 13 13 14 13 13 14 13 14 14 15 15 16 13 14 13 12 13 13 14 14 14 14 15 14 14 13 13 14
4 4 4 5 5 5 4 4 6 8 8 8 8 9 10 12 13 12 12 12 13 14 11 13 14 14 14 14 15 13 13 11 12 12 14 14 13 14 15 15 15 15 15 15
3 3 4 4 5 5 3 5 7 8 9 8 7 8 10 12 13 12 13 12 12 12 13 12 12 12 12 13 12 12 12 11 11 11 13 12 10 12 13 14 15 15 13 14
3 3 4 4 5 5 4 6 6 6 6 8 8 10 10 11 12 11 12 13 13 13 12 13 12 12 12 12 11 12 11 10 9 9 10 9 11 15 15 13 14 12 13 13
3 3 4 4 4 5 4 5 5 7 6 9 10 10 11 11 11 11 12 14 14 10 10 8 10 9 11 11 12 12 11 10 8 9 9 11 12 14 13 13 12 13 13 13
3 3 4 3 4 5 4 4 5 6 5 7 12 10 10 9 10 11 12 13 12 8 6 6 7 9 11 12 13 13 12 11 10 8 9 9 12 15 15 14 9 13 13 13
3 3 3 3 3 4 3 4 5 5 5 8 10 9 9 11 11 9 11 11 11 9 6 6 7 8 12 10 11 12 10 10 9 9 9 9 14 15 14 11 10 12 13 12
2 2 2 3 3 3 4 4 4 5 6 8 9 10 10 10 10 8 9 8 7 6 7 7 7 8 10 11 12 12 10 9 8 8 8 9 12 14 12 9 9 12 12 9
2 2 2 2 3 3 3 4 4 5 5 6 9 9 9 9 9 8 8 8 7 8 7 7 8 8 9 11 9 14 9 10 9 9 8 11 11 12 11 11 12 12 10 9
1 1 1 2 3 3 3 4 6 5 6 5 7 8 10 10 10 10 6 7 7 7 7 7 8 9 9 9 9 10 12 12 11 11 11 11 10 11 10 13 13 12 10 9
1 1 2 3 4 4 4 4 5 7 5 3 6 10 10 10 10 10 10 9 9 8 7 7 7 7 9 8 10 10 11 10 8 8 9 11 12 10 11 12 12 12 9 9
1 1 2 3 4 4 3 4 5 6 5 4 5 7 9 10 10 10 10 9 7 6 5 5 7 8 8 8 8 8 11 10 8 7 10 10 11 11 12 11 11 11 9 8
2 2 2 3 4 3 3 4 4 5 5 4 3 7 8 10 10 9 8 7 6 5 4 4 5 8 7 4 7 11 12 11 11 8 11 11 10 10 9 11 10 10 9 8
4 4 4 4 3 3 3 4 4 6 5 3 3 4 7 9 9 7 7 8 6 5 6 6 5 6 7 6 6 10 11 11 11 10 9 9 11 9 12 12 11 11 10 8
3 4 4 4 4 4 4 4 5 5 5 4 3 3 5 7 5 5 4 5 5 5 5 5 6 6 6 7 8 8 10 12 12 12 12 11 11 11 11 12 9 8 6 6
4 4 3 3 3 3 4 4 4 5 4 3 4 5 4 5 4 4 4 5 5 5 5 5 6 6 7 7 8 10 10 10 10 11 11 10 11 10 10 9 8 6 6 5
3 3 2 2 3 4 4 4 2 3 2 3 4 6 3 5 4 5 4 4 5 5 6 6 6 7 7 9 9 9 9 9 9 9 10 10 9 8 9 9 7 6 6 4
4 2 2 2 3 4 3 3 3 3 3 3 4 4 4 4 5 5 4 5 5 7 7 7 7 6 6 8 7 7 8 8 8 9 9 8 8 8 7 7 7 6 5 4
4 3 2 3 3 3 3 3 3 4 4 4 3 4 5 4 4 5 4 6 5 8 7 7 6 5 6 5 6 6 6 6 6 5 4 4 6 6 7 6 5 5 6 6
4 3 2 3 3 3 2 3 5 4 5 4 5 5 4 4 4 4 5 5 6 7 6 5 5 4 4 4 4 5 4 3 3 1 1 1 1 2 3 2 5 5 4 5
2 2 2 2 3 3 3 5 4 4 4 5 4 4 5 4 5 4 6 5 5 5 3 6 3 3 3 2 2 3 1 -0 -0 -0 -1 -2 -2 -1 -1 0 2 3 1 1
2 2 3 2 2 2 2 2 3 3 4 4 3 4 5 4 4 4 5 5 5 5 4 3 2 2 2 1 1 1 0 -0 0 0 -1 -2 -1 -2 -2 -1 1 1 0 1
2 4 2 2 2 3 2 3 3 4 3 3 4 5 5 4 5 6 6 6 5 4 3 1 1 1 0 0 0 -0 -0 0 0 0 -1 -1 -1 -1 -2 -2 -1 -0 0 -0
4 3 1 2 3 3 3 2 3 3 2 5 5 6 7 6 6 6 4 3 3 2 1 0 0 -0 -0 -0 -1 -1 0 -0 -0 -1 -1 -1 -1 -1 -1 -2 -2 -1 -1 -1

GFSNW_925_temp_168.txt.gz
Temp
5 5 6 6 6 6 5 6 5 8 8 6 6 7 9 12 12 14 14 15 14 14 15 15 16 16 17 17 18 16 16 14 13 15 17 17 16 16 16 11 14 11 9 12
4 5 5 6 6 6 5 5 4 7 8 7 6 8 9 10 12 13 13 14 15 15 14 15 15 16 17 18 15 15 15 13 10 13 14 14 15 15 15 14 12 12 8 9
4 4 4 5 5 6 6 4 5 6 7 6 7 8 8 9 11 12 12 14 14 14 14 15 14 15 17 16 14 14 14 13 12 10 13 13 12 14 14 14 9 10 10 8
3 4 4 4 5 5 5 4 5 6 6 6 7 8 9 9 10 12 12 12 12 13 12 14 13 14 15 15 14 14 13 12 12 13 13 13 13 13 13 12 12 11 12 12
3 4 4 4 4 5 5 4 5 6 5 8 6 6 7 9 10 12 12 12 13 12 11 12 13 13 13 13 13 13 12 12 12 12 13 13 12 13 13 13 13 13 12 13
3 3 4 4 4 4 4 4 6 6 6 7 6 7 8 9 11 11 11 11 12 11 11 12 11 12 11 12 12 11 11 11 10 10 12 10 9 10 12 13 13 13 12 13
3 3 3 3 4 4 4 5 6 4 5 6 7 9 9 9 10 10 11 10 10 11 12 12 12 12 12 11 11 11 10 10 8 9 10 9 10 12 13 11 12 11 12 12
3 3 3 3 4 4 4 5 5 5 5 7 8 9 9 9 10 10 10 9 10 10 9 7 9 8 10 11 11 11 11 9 7 8 8 11 11 13 12 12 11 13 12 12
3 3 3 3 3 4 3 4 5 5 5 7 10 9 9 7 7 9 10 11 9 8 7 6 8 9 10 11 12 12 11 10 8 7 8 9 10 13 15 13 8 12 12 12
2 3 3 3 3 3 3 4 4 5 5 6 7 7 8 8 8 7 10 10 10 8 3 6 7 8 11 9 11 11 8 7 8 8 9 8 11 12 14 11 10 10 12 11
2 3 3 3 3 3 3 4 4 5 5 5 8 8 8 8 8 8 9 8 6 4 5 7 7 7 9 9 11 11 9 8 9 9 9 9 12 12 11 9 9 10 11 10
2 2 3 3 2 3 3 3 3 4 4 5 7 8 9 9 9 7 7 8 7 6 6 6 7 7 8 8 9 11 9 10 8 9 9 10 11 10 11 9 10 10 11 9
2 3 2 2 2 3 3 4 4 4 4 4 4 6 9 9 9 9 6 6 7 6 6 6 7 8 8 7 8 9 10 10 9 10 10 10 10 10 11 11 9 11 10 7
2 2 2 2 2 2 3 3 4 4 4 4 5 8 8 10 10 9 9 8 7 6 5 5 7 7 8 7 8 9 9 10 8 8 9 9 10 10 11 10 9 10 8 7
2 2 2 2 2 2 3 3 4 4 4 2 4 6 9 9 9 9 9 8 6 5 5 5 6 6 6 6 7 6 10 9 6 6 9 9 9 10 10 9 9 9 8 7
2 2 2 1 2 2 3 3 3 3 4 3 2 5 7 9 9 8 7 6 4 4 4 5 4 5 6 5 5 8 11 10 9 8 10 9 9 9 9 10 10 9 8 8
2 2 1 2 2 3 1 3 4 4 5 1 3 3 5 7 7 5 5 6 4 4 4 3 5 5 6 6 6 9 10 9 10 10 9 9 10 8 10 8 8 9 8 7
2 1 2 2 2 2 3 4 4 5 4 3 2 2 4 5 4 6 4 5 6 5 6 5 5 5 5 5 7 8 9 8 9 10 10 10 10 10 10 10 8 7 5 5
1 2 2 3 2 3 3 4 5 5 4 2 1 2 2 4 4 4 5 5 5 5 5 5 5 5 6 6 7 7 8 9 9 9 10 10 10 10 9 9 7 6 4 4
3 2 2 2 3 3 5 4 3 2 2 2 3 3 2 5 4 4 4 4 5 6 5 5 5 6 7 7 7 8 7 7 7 8 8 9 9 8 9 9 7 5 4 4
4 1 2 3 3 3 2 2 3 3 3 3 4 2 4 4 4 5 4 5 5 6 6 6 6 7 6 6 6 6 6 6 5 5 5 5 6 6 7 7 6 5 5 3
4 3 3 3 3 2 3 3 3 3 3 2 3 4 2 4 4 4 4 5 5 7 5 6 6 4 4 4 4 4 3 3 3 3 2 2 3 2 4 5 4 4 5 5
5 2 2 2 2 2 2 3 4 3 2 2 4 4 4 4 4 4 5 6 6 5 6 6 4 3 3 2 3 3 1 1 1 -0 -1 -1 -1 -0 0 1 4 5 4 4
0 0 2 2 1 2 1 2 1 2 3 4 5 4 5 4 4 4 4 4 5 3 2 5 3 2 2 1 2 2 0 0 0 -0 -2 -3 -2 -2 -2 -1 1 3 1 2
1 1 -1 -0 -1 1 2 2 0 3 3 4 3 3 4 4 4 4 4 5 5 5 4 3 2 1 1 1 1 0 0 0 -0 -1 -2 -3 -3 -3 -3 -1 0 1 0 1
1 2 -0 -0 -2 -4 2 2 1 3 2 2 2 5 5 4 5 5 5 6 5 3 2 1 1 0 -0 0 -0 -1 -0 -0 -0 -1 -2 -2 -3 -3 -3 -2 -1 -0 0 0
3 -0 -3 -1 1 3 3 2 2 2 3 4 4 5 5 4 5 5 3 1 2 1 0 -0 -0 -0 -1 -1 -1 -1 -1 -1 -1 -1 -2 -1 -2 -1 -1 -3 -2 -1 -1 -1

GFSNW_925_temp_174.txt.gz
Temp
5 6 6 7 7 7 6 6 5 6 7 4 6 8 9 9 10 11 11 11 11 12 12 12 14 14 15 15 14 13 14 12 12 14 15 15 16 15 14 13 13 11 8 8
5 5 5 6 7 6 6 5 5 6 6 4 5 7 7 8 9 9 9 10 10 12 12 11 12 14 15 15 14 13 12 12 10 13 14 14 13 13 13 12 11 12 10 10
4 4 5 5 6 6 6 5 5 5 6 4 6 7 6 7 8 8 9 9 10 10 11 12 11 13 15 14 15 13 13 12 12 11 12 13 13 13 13 12 9 10 10 9
3 4 4 5 5 5 6 4 5 5 6 6 6 6 7 7 7 8 8 9 9 9 8 10 10 12 13 14 12 13 13 12 12 12 13 12 12 13 12 11 11 11 12 11
3 3 3 4 4 5 5 3 4 5 6 5 6 6 6 7 8 9 9 8 9 9 8 9 10 12 12 12 12 13 11 11 12 11 12 12 12 11 11 12 12 12 11 11
3 3 3 3 4 4 4 4 5 5 6 5 6 6 7 7 8 8 9 9 8 8 9 9 9 9 10 11 11 11 11 10 10 11 11 11 9 10 11 12 11 11 10 11
3 3 3 3 3 3 4 5 5 4 4 5 6 7 7 7 7 7 9 9 8 9 9 10 10 10 9 10 10 10 10 10 9 10 10 9 10 11 11 10 10 10 11 11
2 3 3 3 3 3 3 4 4 4 3 4 5 5 6 6 7 7 8 8 9 9 8 6 7 7 9 9 10 10 10 10 10 8 8 10 11 13 12 10 11 11 10 10
2 2 3 3 3 3 3 3 3 3 4 3 6 6 6 5 5 7 7 9 8 8 6 6 7 8 8 9 11 10 10 9 9 7 8 9 11 12 12 11 10 11 11 11
2 2 2 3 3 3 2 2 3 3 3 4 5 6 5 6 7 5 6 8 7 7 6 7 8 8 10 9 10 10 8 7 8 9 8 8 10 12 12 10 10 11 11 10
2 2 3 3 3 3 2 3 3 3 3 3 5 6 6 6 5 5 6 6 4 5 6 7 6 7 8 9 10 10 10 8 6 7 7 8 10 10 10 9 9 9 9 9
2 2 2 2 3 3 2 2 2 3 2 2 3 3 4 5 7 5 5 6 6 5 5 6 7 6 6 7 7 10 7 9 8 8 7 8 8 8 9 9 9 8 8 9
2 2 2 2 2 2 2 2 3 2 2 3 3 3 6 6 6 6 5 4 7 6 6 5 6 6 5 6 7 8 8 8 7 6 6 6 9 10 9 9 8 8 8 8
1 2 2 2 2 2 2 2 2 3 3 2 2 6 4 6 7 6 7 6 6 5 5 5 5 6 6 6 7 7 7 7 6 7 8 9 9 10 9 9 8 7 7 7
2 2 2 2 2 2 2 2 2 2 2 2 3 4 7 6 6 7 7 6 5 4 4 5 6 5 5 5 5 5 7 7 6 7 7 8 8 9 8 8 8 8 7 7
2 2 2 2 2 2 1 1 2 3 2 2 4 4 5 6 7 7 6 5 4 3 3 2 2 4 5 3 4 7 8 8 7 8 8 7 7 7 8 7 7 7 7 6
2 2 2 2 2 2 1 1 3 3 1 2 3 3 4 5 5 3 3 4 3 3 3 2 3 4 5 4 5 7 8 7 7 6 7 6 8 7 7 7 7 7 7 7
2 2 2 2 2 2 1 3 3 2 3 2 3 3 4 4 3 4 3 4 4 4 3 3 3 3 4 5 6 7 7 7 7 7 7 7 7 6 6 7 6 6 5 4
2 2 1 1 1 1 2 3 3 2 1 3 3 3 3 3 4 4 4 4 5 4 5 4 4 3 5 6 6 6 6 6 6 6 6 7 7 6 6 6 6 6 4 4
1 1 0 1 1 2 3 2 2 2 1 1 2 2 3 3 4 4 4 4 5 4 5 5 5 5 7 6 5 5 5 5 5 6 6 6 6 5 4 4 4 5 4 3
0 -0 1 2 2 3 1 2 2 2 3 2 2 2 3 3 4 4 4 3 4 5 4 5 6 5 4 4 3 3 3 3 3 3 3 2 2 2 1 2 3 4 4 4
1 1 1 2 1 1 2 2 2 2 3 2 3 1 2 3 3 2 4 3 3 5 4 5 4 5 4 4 3 2 2 2 1 1 1 -0 -0 -1 -1 -1 1 3 4 4
1 1 1 0 1 1 2 1 3 2 1 1 2 2 3 3 3 3 3 3 3 4 5 4 3 3 2 3 2 1 0 -0 -0 -1 -2 -2 -2 -3 -3 -3 -2 -0 0 2
1 2 1 0 -0 1 1 3 2 1 2 1 2 3 3 3 4 4 4 5 4 5 4 5 3 2 1 1 1 1 0 -0 -1 -2 -2 -3 -3 -4 -4 -3 -2 -1 -1 -1
1 1 1 0 -1 -0 1 -1 1 2 2 3 3 3 3 4 3 3 5 4 5 5 4 2 1 1 1 1 0 0 -0 -1 -2 -2 -2 -3 -4 -4 -4 -3 -3 -2 -1 -1
1 1 0 1 -1 -3 2 1 1 1 2 2 3 4 4 4 4 5 5 5 4 2 1 1 1 -0 -0 0 -0 -1 -1 -1 -2 -2 -2 -3 -4 -4 -4 -3 -3 -3 -2 -2
2 0 -2 -2 -3 -4 -4 -4 -2 -0 2 1 3 4 4 3 5 5 4 1 -0 1 -0 -1 -0 -0 -0 -1 -1 -1 -1 -2 -2 -2 -2 -3 -3 -3 -3 -4 -4 -3 -3 -3